[[{"header":{"parameterUnit":"m.s-1","parameterCategory":2,"la1":30.2991,"la2":30.254,"lo1":-89.0895,"lo2":-89.0444,"dy":0.0017,"dx":0.0017,"nx":28,"ny":28,"refTime":"2023-11-20T03:00:00:Z","depth":"0","parameterNumber":2,"parameterNumberName":"U-component_of_CURRENTS"},"data":[0,0,0,0,0,0,0,0,0,0,0,0,0,0,0,0,0,0,0,0,0,0,0,0,0,0,0,0,0,0,0,0,0,0,0,0,0,0,0,0,0,0,0,0,0,0,0,0,0,0,0,0,0,0,0,0,0,0,0.2185,0.2184,0,0.2111,0.211,0.2109,0.2054,0.2054,0.2054,0.2053,0.2023,0.2023,0.2022,0,0,0,0,0,0,0,0,0,0,0,0,0,0.2254,0.2253,0.2185,0.2184,0.2183,0.2111,0.2109,0.2108,0.2054,0.2054,0.2054,0.2053,0.2023,0.2023,0.2022,0,0,0,0,0,0,0,0,0,0,0,0,0,0.2204,0.2252,0.2185,0.2149,0.2145,0.2111,0.2109,0.2108,0.2054,0.2054,0.2053,0.2053,0.2024,0.2023,0.2022,0.2026,0,0,0.202,0.2019,0,0,0,0,0,0,0,0,0.2207,0.2202,0.2155,0.2151,0.2147,0.2093,0.2123,0.2083,0.2054,0.2087,0.2053,0.2053,0.2052,0.2049,0.2033,0.2024,0.2023,0.2019,0.2019,0.2019,0.2018,0,0,0,0,0,0,0,0.2211,0.2204,0.2153,0.2154,0.2149,0.2128,0.212,0.2115,0.2072,0.2084,0.208,0.2075,0.205,0.2033,0.2032,0.2022,0.2019,0.2019,0.2018,0.2018,0.207,0.2072,0,0,0,0,0,0,0.2226,0.2208,0.2156,0.2151,0.2179,0.2127,0.2119,0.2109,0.2071,0.2065,0.2076,0.2073,0.2035,0.2033,0.2031,0.21,0.2019,0.2018,0.2017,0.2069,0.2071,0.2073,0,0,0,0,0,0,0.2227,0.2221,0.2159,0.218,0.217,0.2127,0.2116,0.2108,0.2099,0.2065,0.2059,0.2077,0.2035,0.2032,0.2042,0.2096,0.2018,0.2017,0.2066,0.2069,0.2072,0.2196,0,0,0,0,0,0,0.2229,0.2222,0.2224,0.2181,0.217,0.2158,0.2117,0.2107,0.2097,0.2093,0.2064,0.206,0.2034,0.2043,0.2041,0.2093,0.2016,0.2064,0.2068,0.2071,0.219,0.2203,0.2214,0,0,0,0,0,0.2232,0.2233,0.2225,0.2219,0.2172,0.216,0.2153,0.2119,0.2098,0.2106,0.2086,0.2061,0.2064,0.2044,0.2041,0.2094,0.2062,0.2067,0.2071,0.2184,0.22,0.2214,0,0,0,0,0,0,0.2255,0.2226,0.2216,0.2206,0.2197,0.2152,0.2151,0.213,0.2117,0.2115,0.2078,0.2074,0.2107,0.2079,0.2058,0.2119,0.2063,0.2066,0.215,0.2165,0.2177,0.2205,0.2015,0,0,0,0,0,0.2265,0.2264,0.2237,0.2233,0.2229,0.2195,0.2185,0.2169,0.2148,0.2141,0.2123,0.2111,0.212,0.2124,0.212,0.2149,0.2158,0.2183,0.2195,0.2206,0.2227,0.2288,0.2308,0.2087,0.2087,0.2087,0,0,0.2268,0.2259,0.2254,0.2241,0.2224,0.2239,0.2188,0.2185,0.2206,0.2143,0.2166,0.2153,0.2136,0.2173,0.2186,0.2158,0.2275,0.2211,0.2221,0.2236,0.2295,0.2317,0.2336,0.209,0.2089,0.2089,0,0,0.2294,0.2274,0.229,0.229,0.2286,0.2273,0.2281,0.2255,0.2253,0.2273,0.2243,0.2265,0.2258,0.227,0.2273,0.235,0.2337,0.2347,0.2436,0.2495,0.2514,0.2531,0.2579,0.26,0.2354,0.2355,0.2355,0,0.2309,0.2315,0.2295,0.2319,0.2322,0.2298,0.2322,0.2326,0.2312,0.2327,0.23,0.2332,0.2313,0.2381,0.2406,0.2383,0.2406,0.2382,0.2514,0.2531,0.2546,0.2591,0.2612,0.2361,0.236,0.236,0.2359,0,0.2348,0.2358,0.2368,0.2395,0.2405,0.2416,0.2424,0.2446,0.2441,0.2444,0.2501,0.2486,0.2507,0.2512,0.2481,0.2587,0.2565,0.2523,0.2481,0.2576,0.2617,0.2637,0.237,0.2368,0.2366,0.2364,0,0,0.2364,0.239,0.2394,0.2415,0.2439,0.2449,0.2508,0.2545,0.2587,0.2604,0.2662,0.2693,0.2685,0.2689,0.2669,0.2721,0.2845,0.2676,0.2676,0.2734,0.2982,0.2882,0.2893,0.283,0.2833,0.2837,0.297,0,0.2401,0.2451,0.2457,0.2511,0.2534,0.2544,0.2598,0.2639,0.2667,0.2722,0.2749,0.279,0.2754,0.2768,0.2827,0.2831,0.2901,0.2812,0.2872,0.2875,0.2783,0.2914,0.2741,0.2838,0.2989,0.2992,0.2994,0,0.2439,0.2467,0.2515,0.2564,0.2574,0.261,0.2684,0.2729,0.2812,0.2836,0.2905,0.2911,0.3001,0.2942,0.3059,0.3005,0.3017,0.3023,0.3027,0.2906,0.2812,0.2764,0.2867,0.2839,0.3024,0.3021,0.3019,0,0.2454,0.2507,0.2541,0.2555,0.2613,0.2646,0.2683,0.2763,0.2811,0.2912,0.2961,0.3055,0.3102,0.3157,0.3168,0.3127,0.3284,0.3217,0.3153,0.3145,0.2995,0.2967,0.3083,0.3324,0.3323,0.3323,0.3323,0,0.2483,0.2519,0.2547,0.2566,0.2618,0.266,0.2729,0.2786,0.288,0.2951,0.3016,0.3094,0.316,0.3237,0.324,0.3268,0.3349,0.321,0.319,0.3031,0.3006,0.2966,0.2945,0.3328,0.3327,0.3326,0.3325,0,0.2498,0.2521,0.2558,0.2604,0.2622,0.2659,0.2735,0.2793,0.2886,0.2989,0.3027,0.3156,0.3256,0.3311,0.3399,0.3347,0.3286,0.3363,0.3166,0.3119,0.2983,0.2972,0.2926,0.2843,0.332,0.3318,0.3317,0,0.2504,0.2519,0.2557,0.2581,0.26,0.2654,0.2696,0.2783,0.2844,0.3017,0.3068,0.3208,0.3283,0.3384,0.3325,0.3339,0.3269,0.317,0.3051,0.2996,0.2972,0.2852,0.2776,0.2914,0.2909,0.2906,0.2903,0,0.2496,0.2503,0.2532,0.2576,0.2611,0.2647,0.2712,0.2753,0.2869,0.2949,0.3076,0.3155,0.3251,0.318,0.3181,0.3154,0.3008,0.3093,0.31,0.2733,0.2548,0.2448,0.281,0.2871,0.2874,0.2876,0.2878,0.2879,0.2475,0.2485,0.2514,0.2552,0.2592,0.2616,0.2603,0.2685,0.2744,0.2802,0.2958,0.2982,0.3007,0.2973,0.2939,0.2783,0.2798,0.268,0.2699,0.2604,0.2439,0.2726,0.271,0.2713,0.2714,0.2716,0.2718,0,0.2417,0.2445,0.2487,0.2508,0.2504,0.2551,0.2586,0.2544,0.2542,0.2632,0.2675,0.2666,0.2598,0.2611,0.2507,0.2411,0.2274,0.2375,0.22,0.2165,0.2491,0.2389,0.2223,0.2223,0.2223,0.2223,0.2223,0.2223,0.2399,0.2401,0.2416,0.2387,0.2398,0.2329,0.2303,0.2278,0.2295,0.2247,0.2217,0.2255,0.2419,0.2386,0.2286,0.2215,0.2097,0.1959,0.203,0.2305,0.2335,0.2364,0.2267,0.2078,0.2078,0.1561,0.1558,0.1555]},{"header":{"parameterUnit":"m.s-1","parameterCategory":2,"la1":30.2991,"la2":30.254,"lo1":-89.0895,"lo2":-89.0444,"dy":0.0017,"dx":0.0017,"nx":28,"ny":28,"refTime":"2023-11-20T03:00:00:Z","depth":"0","parameterNumber":3,"parameterNumberName":"V-component_of_CURRENTS"},"data":[0,0,0,0,0,0,0,0,0,0,0,0,0,0,0,0,0,0,0,0,0,0,0,0,0,0,0,0,0,0,0,0,0,0,0,0,0,0,0,0,0,0,0,0,0,0,0,0,0,0,0,0,0,0,0,0,0,0,-0.0247,-0.0247,0,-0.0218,-0.0217,-0.0217,-0.0193,-0.0193,-0.0193,-0.0193,-0.0171,-0.017,-0.017,0,0,0,0,0,0,0,0,0,0,0,0,0,-0.0253,-0.0253,-0.0247,-0.0247,-0.0247,-0.0218,-0.0217,-0.0216,-0.0193,-0.0193,-0.0193,-0.0193,-0.0171,-0.017,-0.017,0,0,0,0,0,0,0,0,0,0,0,0,0,-0.0238,-0.0253,-0.0247,-0.0233,-0.0232,-0.0218,-0.0217,-0.0216,-0.0193,-0.0193,-0.0193,-0.0193,-0.0171,-0.017,-0.017,-0.0166,0,0,-0.0167,-0.0167,0,0,0,0,0,0,0,0,-0.0239,-0.0237,-0.0235,-0.0234,-0.0233,-0.0211,-0.0211,-0.0201,-0.0193,-0.0205,-0.0193,-0.0193,-0.0186,-0.0184,-0.0176,-0.0165,-0.0164,-0.0167,-0.0167,-0.0166,-0.0166,0,0,0,0,0,0,0,-0.024,-0.0238,-0.0233,-0.0235,-0.0234,-0.0218,-0.0216,-0.0209,-0.0195,-0.0204,-0.0203,-0.0203,-0.0185,-0.0176,-0.0175,-0.0163,-0.0167,-0.0166,-0.0166,-0.0165,-0.0156,-0.0156,0,0,0,0,0,0,-0.0249,-0.0239,-0.0234,-0.0233,-0.0238,-0.0218,-0.0216,-0.0216,-0.0195,-0.0192,-0.0203,-0.0202,-0.0178,-0.0176,-0.0174,-0.0165,-0.0166,-0.0165,-0.0165,-0.0156,-0.0156,-0.0156,0,0,0,0,0,0,-0.025,-0.0249,-0.0235,-0.0237,-0.0234,-0.0219,-0.0219,-0.0216,-0.0207,-0.0194,-0.0191,-0.0199,-0.0178,-0.0175,-0.0162,-0.0164,-0.0165,-0.0164,-0.0155,-0.0156,-0.0156,-0.0148,0,0,0,0,0,0,-0.025,-0.0249,-0.025,-0.0238,-0.0235,-0.0225,-0.0219,-0.0215,-0.0208,-0.0206,-0.019,-0.0187,-0.0177,-0.0163,-0.0161,-0.0163,-0.0164,-0.0155,-0.0156,-0.0156,-0.0148,-0.0148,-0.0148,0,0,0,0,0,-0.025,-0.0245,-0.025,-0.025,-0.0237,-0.0225,-0.0221,-0.0208,-0.0208,-0.0201,-0.0189,-0.0188,-0.0165,-0.0162,-0.016,-0.0161,-0.0155,-0.0155,-0.0156,-0.0148,-0.0148,-0.0148,0,0,0,0,0,0,-0.024,-0.0242,-0.0247,-0.0242,-0.0237,-0.0221,-0.0213,-0.021,-0.0195,-0.0193,-0.0183,-0.018,-0.0171,-0.0169,-0.0166,-0.0162,-0.0163,-0.0163,-0.0158,-0.0158,-0.0158,-0.0139,-0.0163,0,0,0,0,0,-0.0243,-0.0244,-0.0242,-0.0238,-0.0236,-0.0228,-0.0222,-0.0215,-0.0203,-0.0196,-0.0186,-0.0179,-0.0171,-0.0166,-0.0159,-0.0152,-0.0146,-0.0156,-0.0156,-0.0156,-0.0139,-0.0134,-0.0132,-0.0158,-0.0158,-0.0158,0,0,-0.0238,-0.024,-0.024,-0.0237,-0.0231,-0.0217,-0.0223,-0.0213,-0.0198,-0.0197,-0.0173,-0.0176,-0.017,-0.016,-0.0157,-0.0158,-0.0147,-0.0156,-0.0156,-0.0139,-0.0135,-0.0132,-0.0129,-0.0158,-0.0158,-0.0158,0,0,-0.0222,-0.0231,-0.0224,-0.0219,-0.0216,-0.021,-0.021,-0.0199,-0.0191,-0.0178,-0.0174,-0.0174,-0.0163,-0.0155,-0.0152,-0.0149,-0.0147,-0.0158,-0.014,-0.0136,-0.0134,-0.0131,-0.0127,-0.0124,-0.0159,-0.0159,-0.0159,0,-0.0216,-0.0203,-0.0218,-0.0206,-0.0192,-0.0207,-0.0183,-0.0181,-0.0167,-0.0155,-0.0169,-0.0151,-0.0157,-0.0135,-0.0141,-0.0148,-0.0144,-0.0139,-0.0135,-0.0132,-0.013,-0.0126,-0.0123,-0.0159,-0.0159,-0.0159,-0.0159,0,-0.0187,-0.0178,-0.017,-0.0162,-0.0153,-0.0136,-0.0136,-0.013,-0.0134,-0.0129,-0.0115,-0.0125,-0.0108,-0.0127,-0.0133,-0.0121,-0.0125,-0.0135,-0.0131,-0.0126,-0.0123,-0.012,-0.0158,-0.0158,-0.0158,-0.0158,0,0,-0.0168,-0.0152,-0.0147,-0.0131,-0.0124,-0.0109,-0.0095,-0.0075,-0.0052,-0.0068,-0.0032,-0.0055,-0.0065,-0.0061,-0.0078,-0.0087,-0.0086,-0.0105,-0.0105,-0.0095,-0.0073,-0.0094,-0.0093,-0.0095,-0.0095,-0.0094,-0.008,0,-0.0135,-0.0097,-0.0097,-0.0055,-0.0034,-0.0039,-0.0017,-0.0008,-0.0006,0.0019,-0.0006,0.0015,-0.0038,-0.003,-0.0049,-0.0065,-0.0076,-0.0088,-0.0084,-0.0084,-0.0097,-0.0089,-0.0071,-0.0059,-0.0077,-0.0077,-0.0077,0,-0.0102,-0.0078,-0.0028,0.0007,0.0018,0.0039,0.0078,0.0097,0.0111,0.0114,0.0115,0.0102,0.0094,0.0044,0.0014,0.0009,-0.0029,-0.0056,-0.0057,-0.0071,-0.0098,-0.0066,-0.0053,-0.0164,-0.0072,-0.0072,-0.0073,0,-0.0072,-0.003,0.0016,0.0029,0.0064,0.0088,0.0109,0.0128,0.0164,0.0182,0.0212,0.0188,0.0199,0.0142,0.0071,0.0049,0.0037,0.0003,-0.005,-0.0052,-0.0032,-0.0034,-0.0116,-0.0016,-0.0016,-0.0016,-0.0016,0,-0.0037,-0.0005,0.0035,0.0061,0.0122,0.0129,0.0195,0.0206,0.0249,0.0315,0.027,0.032,0.0224,0.0201,0.0115,0.0048,0.0073,-0.0035,-0.0046,-0.0032,-0.0033,-0.0125,-0.019,-0.0016,-0.0016,-0.0016,-0.0016,0,-0.002,0.0003,0.0061,0.0117,0.0137,0.0181,0.0252,0.0306,0.033,0.0419,0.0434,0.0432,0.0406,0.0302,0.0224,0.0123,-0.0013,0.0017,0.0037,0.0028,-0.0143,-0.0209,-0.0284,-0.035,-0.0037,-0.0038,-0.0038,0,-0.0004,0.0032,0.011,0.0151,0.0178,0.0244,0.0301,0.0343,0.0412,0.0501,0.0561,0.0557,0.0585,0.045,0.0271,0.0126,0.0003,0.0023,-0.0026,-0.0143,-0.0223,-0.0274,-0.0328,0.0003,0.0003,0.0003,0.0003,0,0.0042,0.0071,0.0119,0.021,0.0277,0.0357,0.0441,0.0507,0.0585,0.0671,0.0783,0.0814,0.0685,0.0552,0.0322,0.0205,-0.0064,0.0018,-0.0099,-0.0194,-0.0254,-0.0326,-0.0023,0.0003,0.0003,0.0003,0.0003,0.0003,0.0085,0.0128,0.0204,0.0284,0.0366,0.0478,0.0555,0.0663,0.0798,0.0939,0.0951,0.1024,0.0797,0.0497,0.0308,-0.004,-0.0059,-0.015,-0.0216,-0.0254,-0.0333,-0.0036,-0.0032,-0.0032,-0.0032,-0.0033,-0.0033,0,0.0157,0.0202,0.028,0.0387,0.0489,0.0519,0.0664,0.0758,0.0935,0.1055,0.1156,0.1104,0.0823,0.0501,0.0046,-0.0217,-0.0327,-0.0367,-0.0433,-0.0478,-0.0198,-0.0214,-0.0253,-0.0253,-0.0253,-0.0252,-0.0252,-0.0252,0.0198,0.0283,0.0319,0.0488,0.0564,0.071,0.0799,0.0939,0.1049,0.1216,0.1274,0.1287,0.1088,0.0276,-0.0289,-0.0438,-0.0634,-0.0672,-0.0789,-0.0598,-0.0583,-0.0569,-0.06,-0.0719,-0.0719,-0.1033,-0.1036,-0.1038]}],[{"header":{"parameterUnit":"m.s-1","parameterCategory":2,"la1":30.2991,"la2":30.254,"lo1":-89.0895,"lo2":-89.0444,"dy":0.0017,"dx":0.0017,"nx":28,"ny":28,"refTime":"2023-11-20T03:00:00:Z","depth":"2","parameterNumber":2,"parameterNumberName":"U-component_of_CURRENTS"},"data":[0,0,0,0,0,0,0,0,0,0,0,0,0,0,0,0,0,0,0,0,0,0,0,0,0,0,0,0,0,0,0,0,0,0,0,0,0,0,0,0,0,0,0,0,0,0,0,0,0,0,0,0,0,0,0,0,0,0,0.1914,0.1914,0,0.1885,0.1885,0.1884,0.1856,0.1856,0.1856,0.1856,0.1838,0.1838,0.1837,0,0,0,0,0,0,0,0,0,0,0,0,0,0.1938,0.1937,0.1914,0.1914,0.1914,0.1885,0.1885,0.1884,0.1856,0.1856,0.1856,0.1856,0.1838,0.1838,0.1837,0,0,0,0,0,0,0,0,0,0,0,0,0,0.1916,0.1937,0.1914,0.1899,0.1898,0.1886,0.1885,0.1884,0.1856,0.1856,0.1856,0.1856,0.1839,0.1838,0.1837,0.1834,0,0,0.1835,0.1835,0,0,0,0,0,0,0,0,0.1918,0.1915,0.1901,0.19,0.1899,0.1877,0.1887,0.1869,0.1856,0.1868,0.1856,0.1856,0.1855,0.1853,0.1842,0.1833,0.1832,0.1835,0.1835,0.1834,0.1834,0,0,0,0,0,0,0,0.1919,0.1916,0.1899,0.1901,0.19,0.1892,0.1889,0.1883,0.1859,0.1867,0.1866,0.1869,0.1854,0.1843,0.1842,0.1832,0.1835,0.1835,0.1834,0.1834,0.1879,0.188,0,0,0,0,0,0,0.193,0.1918,0.19,0.1898,0.1912,0.1892,0.1888,0.1881,0.1859,0.1857,0.1869,0.1867,0.1844,0.1842,0.1841,0.1909,0.1835,0.1834,0.1833,0.1877,0.1879,0.1881,0,0,0,0,0,0,0.1931,0.1929,0.1901,0.1911,0.1907,0.1892,0.1884,0.1881,0.1884,0.1861,0.1858,0.1878,0.1844,0.1842,0.1854,0.1905,0.1834,0.1833,0.1875,0.1878,0.188,0.1997,0,0,0,0,0,0,0.1931,0.1929,0.1931,0.1911,0.1907,0.1913,0.1885,0.188,0.1887,0.1885,0.1868,0.1865,0.1844,0.1855,0.1853,0.1903,0.1832,0.1873,0.1876,0.1879,0.1991,0.2003,0.2014,0,0,0,0,0,0.1932,0.1932,0.1931,0.193,0.191,0.1915,0.1912,0.1898,0.1887,0.1898,0.1886,0.1866,0.1873,0.1856,0.1853,0.1904,0.1872,0.1875,0.1879,0.1986,0.2001,0.2013,0,0,0,0,0,0,0.1942,0.1929,0.1928,0.1923,0.1932,0.1912,0.1919,0.191,0.1907,0.191,0.188,0.1877,0.1912,0.1885,0.1867,0.1924,0.1872,0.1875,0.1955,0.1968,0.1979,0.1992,0.1832,0,0,0,0,0,0.1948,0.1948,0.1941,0.1945,0.195,0.1939,0.194,0.1937,0.1931,0.1929,0.1917,0.1911,0.1922,0.1926,0.1925,0.195,0.1949,0.1981,0.1993,0.2002,0.2011,0.2072,0.2091,0.1893,0.1892,0.1892,0,0,0.1953,0.1949,0.1949,0.1949,0.195,0.1967,0.1939,0.1955,0.1979,0.1929,0.1956,0.1951,0.1937,0.1972,0.1985,0.1958,0.2056,0.2007,0.2016,0.2019,0.2078,0.2098,0.2115,0.1895,0.1894,0.1894,0,0,0.1971,0.1964,0.1974,0.1984,0.1999,0.1998,0.201,0.2008,0.2019,0.2043,0.2024,0.2047,0.2047,0.2057,0.2059,0.2128,0.2115,0.2132,0.22,0.2261,0.2278,0.2293,0.231,0.2326,0.2136,0.2136,0.2136,0,0.1979,0.1989,0.1982,0.2,0.2018,0.2018,0.2046,0.2059,0.2064,0.2084,0.207,0.2106,0.2092,0.2151,0.2174,0.2158,0.2175,0.2153,0.2278,0.2293,0.2307,0.2321,0.2337,0.2142,0.2142,0.2141,0.214,0,0.2009,0.202,0.2032,0.2055,0.2076,0.2102,0.2125,0.2149,0.2163,0.2177,0.2241,0.2235,0.2258,0.2265,0.2239,0.2333,0.2308,0.229,0.225,0.2335,0.2342,0.2357,0.2151,0.2149,0.2147,0.2146,0,0,0.2017,0.2045,0.2051,0.2068,0.211,0.2124,0.2183,0.223,0.227,0.2302,0.2362,0.2396,0.2403,0.2406,0.2397,0.2443,0.2545,0.2413,0.2414,0.2439,0.2664,0.2578,0.2585,0.2563,0.2567,0.257,0.2629,0,0.2047,0.2083,0.21,0.2146,0.2167,0.2196,0.2248,0.2295,0.2338,0.2392,0.2432,0.2481,0.2458,0.2482,0.2535,0.2541,0.2591,0.2529,0.2569,0.257,0.2492,0.2602,0.2368,0.2396,0.2643,0.2645,0.2647,0,0.2069,0.2094,0.2143,0.2185,0.22,0.2237,0.2317,0.2367,0.2452,0.2485,0.256,0.2583,0.2663,0.2626,0.2721,0.2689,0.2692,0.2692,0.2695,0.2584,0.2512,0.2351,0.2413,0.2671,0.2669,0.2667,0.2665,0,0.2068,0.2116,0.2156,0.2173,0.2231,0.227,0.2317,0.2401,0.246,0.2559,0.2612,0.27,0.2751,0.2802,0.2806,0.2783,0.2892,0.2853,0.2779,0.277,0.256,0.2528,0.2932,0.2932,0.2932,0.2931,0.2931,0,0.2074,0.211,0.2156,0.2176,0.2237,0.2284,0.2363,0.242,0.2523,0.2587,0.2672,0.2733,0.2805,0.2864,0.286,0.287,0.2945,0.2815,0.28,0.2591,0.2563,0.2784,0.2766,0.2934,0.2933,0.2933,0.2932,0,0.2061,0.2095,0.2137,0.2203,0.2233,0.2281,0.2385,0.2437,0.2545,0.2638,0.2679,0.2791,0.2863,0.2914,0.2972,0.2926,0.294,0.2917,0.2645,0.2598,0.2759,0.2747,0.2854,0.2852,0.285,0.2849,0.2847,0,0.2054,0.2077,0.2144,0.2182,0.2219,0.2293,0.2343,0.2441,0.25,0.2649,0.269,0.2805,0.2828,0.2899,0.2864,0.2863,0.2923,0.2622,0.2534,0.2787,0.2762,0.2752,0.2742,0.2295,0.2289,0.2284,0.2281,0,0.2055,0.2083,0.21,0.2179,0.2233,0.2273,0.2355,0.2388,0.2491,0.2559,0.2624,0.2657,0.2733,0.2618,0.2634,0.2595,0.2606,0.2526,0.2896,0.2349,0.2265,0.2238,0.2246,0.2239,0.2243,0.2246,0.2249,0.225,0.2043,0.2058,0.2099,0.2139,0.2207,0.2228,0.2216,0.2281,0.2317,0.2358,0.2458,0.242,0.2436,0.2341,0.2264,0.2215,0.24,0.2262,0.2275,0.2293,0.2217,0.2134,0.2067,0.207,0.2073,0.2075,0.2077,0,0.2005,0.2029,0.2077,0.2093,0.2104,0.2179,0.2199,0.2134,0.2094,0.2158,0.2169,0.196,0.189,0.1928,0.1788,0.1773,0.1738,0.1689,0.1623,0.1666,0.1704,0.1596,0.1283,0.128,0.1278,0.1276,0,0,0.1998,0.1999,0.1992,0.1966,0.1994,0.1955,0.1928,0.1851,0.1846,0.1745,0.1708,0.1825,0.1872,0.1562,0.1516,0.1377,0.1509,0.1314,0.1956,0.1923,0.1958,0.2045,0.1928,0,0,0,0,0]},{"header":{"parameterUnit":"m.s-1","parameterCategory":2,"la1":30.2991,"la2":30.254,"lo1":-89.0895,"lo2":-89.0444,"dy":0.0017,"dx":0.0017,"nx":28,"ny":28,"refTime":"2023-11-20T03:00:00:Z","depth":"2","parameterNumber":3,"parameterNumberName":"V-component_of_CURRENTS"},"data":[0,0,0,0,0,0,0,0,0,0,0,0,0,0,0,0,0,0,0,0,0,0,0,0,0,0,0,0,0,0,0,0,0,0,0,0,0,0,0,0,0,0,0,0,0,0,0,0,0,0,0,0,0,0,0,0,0,0,-0.0065,-0.0065,0,-0.0058,-0.0058,-0.0058,-0.0048,-0.0048,-0.0048,-0.0048,-0.0026,-0.0025,-0.0025,0,0,0,0,0,0,0,0,0,0,0,0,0,-0.0047,-0.0048,-0.0065,-0.0065,-0.0065,-0.0058,-0.0058,-0.0058,-0.0048,-0.0048,-0.0048,-0.0048,-0.0026,-0.0025,-0.0025,0,0,0,0,0,0,0,0,0,0,0,0,0,-0.0046,-0.0048,-0.0065,-0.0062,-0.0062,-0.0058,-0.0058,-0.0057,-0.0048,-0.0048,-0.0048,-0.0048,-0.0026,-0.0025,-0.0024,-0.0015,0,0,-0.0021,-0.0021,0,0,0,0,0,0,0,0,-0.0046,-0.0047,-0.0062,-0.0062,-0.0062,-0.0057,-0.0044,-0.0044,-0.0048,-0.005,-0.0048,-0.0048,-0.0037,-0.0035,-0.0029,-0.0014,-0.0013,-0.0021,-0.0021,-0.002,-0.002,0,0,0,0,0,0,0,-0.0046,-0.0047,-0.0059,-0.0062,-0.0062,-0.0054,-0.0054,-0.0044,-0.004,-0.0049,-0.0049,-0.0054,-0.0036,-0.003,-0.0028,-0.0012,-0.0021,-0.002,-0.002,-0.0019,0.0004,0.0004,0,0,0,0,0,0,-0.0055,-0.0047,-0.0059,-0.0059,-0.0058,-0.0054,-0.0054,-0.0056,-0.004,-0.0039,-0.0054,-0.0053,-0.0032,-0.003,-0.0028,-0.0014,-0.002,-0.0019,-0.0019,0.0004,0.0004,0.0004,0,0,0,0,0,0,-0.0054,-0.0056,-0.0059,-0.0055,-0.0056,-0.0055,-0.0056,-0.0055,-0.0054,-0.0044,-0.0042,-0.0054,-0.0032,-0.0029,-0.0014,-0.0014,-0.0019,-0.0018,0.0004,0.0004,0.0004,0.0011,0,0,0,0,0,0,-0.0054,-0.0055,-0.0055,-0.0056,-0.0056,-0.0055,-0.0057,-0.0055,-0.0057,-0.0057,-0.0043,-0.0041,-0.0032,-0.0016,-0.0013,-0.0012,-0.0017,0.0004,0.0004,0.0004,0.0011,0.0012,0.0012,0,0,0,0,0,-0.0053,-0.0046,-0.0055,-0.0056,-0.0057,-0.0055,-0.0054,-0.0052,-0.0057,-0.0051,-0.0042,-0.0042,-0.0014,-0.0014,-0.0012,-0.001,0.0004,0.0004,0.0004,0.0011,0.0012,0.0012,0,0,0,0,0,0,-0.0036,-0.0045,-0.0054,-0.0051,-0.0056,-0.0055,-0.005,-0.0055,-0.0043,-0.0044,-0.0035,-0.0032,-0.0021,-0.0017,-0.0018,-0.0005,-0.0008,-0.0007,-0.0004,-0.0003,-0.0003,0.0019,-0.0016,0,0,0,0,0,-0.0035,-0.0034,-0.0045,-0.0043,-0.0047,-0.0052,-0.0052,-0.0053,-0.0048,-0.0043,-0.0034,-0.0027,-0.0018,-0.0012,-0.0002,0.0009,0.0012,0.0009,0.0009,0.001,0.0029,0.0026,0.0029,0.0004,0.0004,0.0004,0,0,-0.0031,-0.0036,-0.0036,-0.004,-0.0045,-0.0032,-0.0051,-0.0051,-0.0039,-0.0042,-0.0019,-0.0024,-0.0015,-0.0001,0.0003,0.0002,0.0016,0.001,0.001,0.0029,0.0027,0.0029,0.0031,0.0004,0.0004,0.0004,0,0,-0.0011,-0.0026,-0.0015,-0.0015,-0.0023,-0.0024,-0.0027,-0.0029,-0.0029,-0.0016,-0.0016,-0.0015,-0.0001,0.0008,0.0014,0.0022,0.0017,0.0013,0.0037,0.0034,0.0036,0.0038,0.0037,0.0039,0.0015,0.0015,0.0015,0,-0.0004,0.0008,-0.0011,0.0004,0.0009,-0.0019,0.0001,-0.0001,0.0004,0.0011,-0.0007,0.0012,0.0008,0.0034,0.0032,0.0025,0.0022,0.0034,0.0035,0.0037,0.0039,0.0038,0.004,0.0015,0.0015,0.0015,0.0015,0,0.0029,0.0039,0.0044,0.0056,0.0059,0.0066,0.0058,0.0063,0.005,0.0049,0.0058,0.0048,0.0064,0.0048,0.0043,0.0055,0.0047,0.0034,0.0035,0.0042,0.004,0.0042,0.0015,0.0015,0.0015,0.0015,0,0,0.0051,0.0066,0.0069,0.0088,0.0086,0.0098,0.0111,0.0123,0.0145,0.0122,0.0152,0.0134,0.0117,0.0122,0.0103,0.0092,0.0088,0.0069,0.0068,0.0071,0.0082,0.0053,0.0052,0.0069,0.007,0.007,0.0071,0,0.0084,0.0129,0.0123,0.0168,0.0191,0.0175,0.0198,0.0203,0.0196,0.0217,0.0184,0.02,0.0147,0.0152,0.0131,0.0108,0.0095,0.009,0.0073,0.0073,0.0049,0.0055,0.0069,0.0069,0.0073,0.0073,0.0074,0,0.0122,0.015,0.0199,0.0236,0.0245,0.0263,0.0297,0.0314,0.0322,0.0319,0.0311,0.0288,0.0277,0.0224,0.0183,0.018,0.0136,0.0105,0.0104,0.0082,0.0048,0.0064,0.0072,0.0077,0.0077,0.0076,0.0076,0,0.0163,0.0205,0.0248,0.026,0.0296,0.0314,0.0328,0.0344,0.0376,0.0384,0.0409,0.0375,0.0378,0.0311,0.0227,0.021,0.0177,0.0148,0.0083,0.0081,0.0096,0.0093,0.0123,0.0123,0.0123,0.0123,0.0123,0,0.0207,0.024,0.027,0.0298,0.0353,0.0359,0.0417,0.0423,0.0459,0.0523,0.0464,0.0506,0.0398,0.0359,0.0266,0.0182,0.0206,0.0099,0.0082,0.0096,0.0094,0.0105,0.0102,0.0123,0.0123,0.0123,0.0123,0,0.0243,0.026,0.0319,0.0363,0.0374,0.0415,0.047,0.0525,0.0539,0.0622,0.0632,0.0615,0.0567,0.0446,0.0352,0.025,0.016,0.0123,0.0143,0.0128,0.0058,0.0057,0.0064,0.0063,0.0062,0.0061,0.0061,0,0.0267,0.0301,0.0365,0.0402,0.0418,0.0475,0.0526,0.056,0.0628,0.0702,0.0758,0.0729,0.0732,0.0562,0.0375,0.0208,0.0177,0.0103,0.0069,0.0071,0.0054,0.0054,0.0053,0.0091,0.0091,0.0091,0.0091,0,0.0315,0.0334,0.039,0.0463,0.0519,0.0597,0.0667,0.0734,0.0808,0.0874,0.0963,0.0965,0.0806,0.0636,0.0381,0.0266,0.0124,0.0093,0.0107,0.0095,0.0095,0.0078,0.0077,0.0089,0.0089,0.0089,0.0089,0.0089,0.0356,0.0399,0.0467,0.0544,0.0613,0.0717,0.0787,0.0886,0.1004,0.1106,0.1106,0.1096,0.0896,0.0568,0.0353,0.0114,0.0135,0.0045,0.0047,0.0049,0.0043,0.0041,0.0024,0.0024,0.0024,0.0023,0.0023,0,0.0417,0.0461,0.0536,0.0643,0.0734,0.0748,0.0888,0.097,0.1115,0.1181,0.1233,0.1045,0.0844,0.0597,0.0247,0.0047,0.0033,-0.0023,0.0005,0.0009,0.0012,0.0005,-0.0025,-0.0026,-0.0027,-0.0027,0,0,0.045,0.0533,0.0577,0.0734,0.0797,0.0918,0.0996,0.111,0.1178,0.1248,0.1226,0.118,0.0898,0.0632,0.0367,0.0164,0.0128,0.0123,0.0186,0.0255,0.026,0.008,0.0076,0,0,0,0,0]}],[{"header":{"parameterUnit":"m.s-1","parameterCategory":2,"la1":30.2991,"la2":30.254,"lo1":-89.0895,"lo2":-89.0444,"dy":0.0017,"dx":0.0017,"nx":28,"ny":28,"refTime":"2023-11-20T03:00:00:Z","depth":"4","parameterNumber":2,"parameterNumberName":"U-component_of_CURRENTS"},"data":[0,0,0,0,0,0,0,0,0,0,0,0,0,0,0,0,0,0,0,0,0,0,0,0,0,0,0,0,0,0,0,0,0,0,0,0,0,0,0,0,0,0,0,0,0,0,0,0,0,0,0,0,0,0,0,0,0,0,0.103,0.1031,0,0.1101,0.1102,0.1102,0.1147,0.1147,0.1148,0.1149,0.1186,0.1186,0.1187,0,0,0,0,0,0,0,0,0,0,0,0,0,0.0939,0.094,0.103,0.1031,0.1033,0.1101,0.1102,0.1102,0.1147,0.1147,0.1148,0.1149,0.1186,0.1186,0.1187,0,0,0,0,0,0,0,0,0,0,0,0,0,0.0988,0.094,0.103,0.1065,0.107,0.1101,0.1102,0.1103,0.1147,0.1147,0.1148,0.1149,0.1185,0.1186,0.1187,0.1175,0,0,0.1189,0.1189,0,0,0,0,0,0,0,0,0.0985,0.0991,0.1059,0.1063,0.1068,0.1119,0.1084,0.1126,0.1146,0.1114,0.1149,0.1149,0.1162,0.1164,0.1172,0.1176,0.1178,0.1189,0.1189,0.119,0.119,0,0,0,0,0,0,0,0.0982,0.0988,0.1055,0.106,0.1066,0.108,0.1087,0.1092,0.1129,0.1117,0.1121,0.1134,0.1164,0.1171,0.1173,0.1178,0.1189,0.119,0.119,0.119,0.1244,0.1245,0,0,0,0,0,0,0.0978,0.0985,0.1053,0.1057,0.1031,0.1081,0.1089,0.1099,0.113,0.1137,0.1133,0.1136,0.1169,0.1172,0.1174,0.1226,0.119,0.119,0.1191,0.1243,0.1245,0.1246,0,0,0,0,0,0,0.0976,0.0984,0.105,0.1025,0.1035,0.1082,0.1092,0.11,0.1137,0.1143,0.1149,0.1166,0.117,0.1173,0.1201,0.1225,0.1191,0.1191,0.1242,0.1244,0.1245,0.1288,0,0,0,0,0,0,0.0973,0.0982,0.0996,0.1025,0.1037,0.1084,0.1092,0.1101,0.1143,0.1148,0.1172,0.1175,0.1171,0.12,0.1201,0.1226,0.1192,0.1241,0.1243,0.1245,0.1285,0.1291,0.1295,0,0,0,0,0,0.0969,0.0976,0.0996,0.1005,0.1051,0.1085,0.1093,0.1126,0.1144,0.1162,0.118,0.1176,0.1213,0.1201,0.1203,0.1228,0.124,0.1242,0.1245,0.1283,0.129,0.1295,0,0,0,0,0,0,0.0949,0.0983,0.1005,0.1025,0.1063,0.1095,0.1116,0.1141,0.1171,0.1181,0.1186,0.119,0.1224,0.1219,0.1206,0.1249,0.1227,0.123,0.1255,0.1262,0.1267,0.1281,0.1193,0,0,0,0,0,0.0951,0.0963,0.1006,0.1026,0.1047,0.1088,0.1111,0.1137,0.1164,0.118,0.1199,0.1216,0.1229,0.1242,0.125,0.1272,0.1282,0.129,0.1295,0.13,0.1313,0.1351,0.1361,0.1253,0.1253,0.1253,0,0,0.0952,0.0971,0.0982,0.1023,0.1056,0.1085,0.1104,0.1146,0.1174,0.1177,0.1222,0.1236,0.1239,0.1266,0.1281,0.1269,0.1335,0.1303,0.1306,0.1317,0.1355,0.1365,0.1374,0.1255,0.1255,0.1254,0,0,0.0953,0.0978,0.0993,0.1022,0.1074,0.1098,0.1117,0.1167,0.1196,0.1238,0.1246,0.1282,0.1303,0.1315,0.132,0.136,0.136,0.1361,0.1399,0.1436,0.1446,0.1454,0.1476,0.1486,0.1364,0.1364,0.1364,0,0.0962,0.0981,0.1006,0.1029,0.1059,0.1107,0.114,0.1168,0.1222,0.125,0.1259,0.1321,0.1328,0.1362,0.1379,0.1373,0.1389,0.1374,0.1444,0.1452,0.146,0.1481,0.1491,0.1366,0.1366,0.1366,0.1365,0,0.0968,0.0996,0.1009,0.1052,0.1085,0.112,0.1166,0.1207,0.1252,0.1285,0.1348,0.1369,0.1413,0.1416,0.1411,0.1469,0.1459,0.1446,0.1429,0.1474,0.1492,0.1502,0.137,0.1369,0.1368,0.1367,0,0,0.0969,0.1008,0.102,0.1041,0.1104,0.1128,0.118,0.1241,0.1284,0.1341,0.1401,0.144,0.1476,0.1485,0.1492,0.1523,0.159,0.1514,0.1515,0.1537,0.1669,0.1556,0.1556,0.1591,0.1593,0.1595,0.1657,0,0.0983,0.1017,0.104,0.1086,0.1113,0.1164,0.1203,0.1262,0.1322,0.1384,0.1432,0.1488,0.1493,0.1527,0.1564,0.1584,0.162,0.1574,0.1621,0.1622,0.1518,0.1565,0.1602,0.1665,0.1667,0.1669,0.167,0,0.0986,0.1013,0.1055,0.1103,0.1122,0.1157,0.1241,0.1287,0.1374,0.1426,0.1505,0.1541,0.1613,0.1604,0.1687,0.1659,0.1678,0.1686,0.1688,0.1577,0.1529,0.1612,0.1688,0.1687,0.1685,0.1684,0.1683,0,0.0966,0.102,0.1052,0.1071,0.1134,0.1171,0.1221,0.1308,0.1357,0.1469,0.1524,0.1606,0.1667,0.1708,0.1745,0.1727,0.1817,0.1789,0.1705,0.1697,0.1761,0.1751,0.1851,0.1851,0.1851,0.185,0.185,0,0.0951,0.0977,0.1045,0.1064,0.1109,0.1167,0.1239,0.13,0.1398,0.146,0.1554,0.1609,0.1701,0.1756,0.1772,0.1773,0.1849,0.1725,0.1711,0.1775,0.1767,0.1768,0.1757,0.1853,0.1852,0.1852,0.1851,0,0.0902,0.0946,0.0986,0.107,0.1097,0.1134,0.1241,0.1288,0.1397,0.1485,0.1525,0.1639,0.1715,0.1777,0.1846,0.1801,0.181,0.179,0.1862,0.185,0.1656,0.1648,0.1698,0.1695,0.1692,0.169,0.1688,0,0.0871,0.089,0.0986,0.1007,0.1044,0.1116,0.1164,0.1281,0.1334,0.1484,0.1508,0.1624,0.1691,0.1702,0.177,0.1796,0.1775,0.1764,0.1703,0.1662,0.1645,0.164,0.1635,0.1683,0.1683,0.1682,0.1681,0,0.0822,0.0867,0.0904,0.0957,0.1006,0.1061,0.1141,0.1167,0.1302,0.141,0.1467,0.151,0.1591,0.1637,0.1677,0.1686,0.1758,0.1734,0.1739,0.1682,0.1644,0.1629,0.1627,0.1671,0.1673,0.1674,0.1674,0,0.0795,0.0801,0.086,0.0894,0.0951,0.0983,0.1037,0.1099,0.1168,0.1326,0.1341,0.1467,0.1575,0.1581,0.1611,0.1619,0.1591,0.1527,0.1542,0.1554,0.1477,0.1406,0.1359,0,0,0,0,0,0.0763,0.0762,0.0787,0.0822,0.0874,0.0917,0.1006,0.1064,0.1192,0.1199,0.1268,0.1336,0.1394,0.1449,0.1431,0.1541,0.1592,0.1511,0.1525,0.1617,0.1628,0.155,0,0,0,0,0,0,0.0734,0.0757,0.0765,0.0763,0.0773,0.083,0.0892,0.0974,0.0983,0.111,0.1149,0.125,0.1326,0.1399,0.1406,0.1423,0.1402,0.1588,0.1585,0.161,0.1621,0.163,0.1553,0,0,0,0,0]},{"header":{"parameterUnit":"m.s-1","parameterCategory":2,"la1":30.2991,"la2":30.254,"lo1":-89.0895,"lo2":-89.0444,"dy":0.0017,"dx":0.0017,"nx":28,"ny":28,"refTime":"2023-11-20T03:00:00:Z","depth":"4","parameterNumber":3,"parameterNumberName":"V-component_of_CURRENTS"},"data":[0,0,0,0,0,0,0,0,0,0,0,0,0,0,0,0,0,0,0,0,0,0,0,0,0,0,0,0,0,0,0,0,0,0,0,0,0,0,0,0,0,0,0,0,0,0,0,0,0,0,0,0,0,0,0,0,0,0,0.0124,0.0124,0,0.0109,0.0109,0.0109,0.011,0.011,0.011,0.011,0.0142,0.0143,0.0144,0,0,0,0,0,0,0,0,0,0,0,0,0,0.0153,0.0153,0.0124,0.0124,0.0123,0.0109,0.0109,0.0109,0.011,0.011,0.011,0.011,0.0142,0.0143,0.0144,0,0,0,0,0,0,0,0,0,0,0,0,0,0.0142,0.0152,0.0124,0.012,0.0119,0.0109,0.0109,0.0109,0.011,0.011,0.011,0.011,0.0142,0.0143,0.0144,0.0155,0,0,0.0149,0.0149,0,0,0,0,0,0,0,0,0.0143,0.0142,0.0121,0.012,0.0119,0.0108,0.013,0.0126,0.011,0.0117,0.011,0.011,0.0133,0.0135,0.0137,0.0157,0.0158,0.0149,0.015,0.015,0.0151,0,0,0,0,0,0,0,0.0144,0.0142,0.0122,0.012,0.0119,0.0117,0.0116,0.013,0.013,0.0117,0.0116,0.0109,0.0133,0.0136,0.0138,0.0159,0.0149,0.015,0.0151,0.0151,0.0199,0.0199,0,0,0,0,0,0,0.0139,0.0143,0.0122,0.0121,0.0127,0.0117,0.0115,0.0115,0.0128,0.0129,0.0109,0.0109,0.0133,0.0136,0.0139,0.0169,0.015,0.0152,0.0152,0.0199,0.0199,0.02,0,0,0,0,0,0,0.014,0.0137,0.0123,0.0128,0.0126,0.0116,0.0115,0.0114,0.0114,0.0121,0.0123,0.0108,0.0133,0.0137,0.0157,0.0169,0.0152,0.0153,0.0198,0.0199,0.0199,0.0218,0,0,0,0,0,0,0.0141,0.0138,0.0143,0.0128,0.0125,0.0123,0.0115,0.0114,0.0108,0.0108,0.0122,0.0125,0.0133,0.0155,0.0159,0.0171,0.0155,0.0198,0.0198,0.0199,0.0217,0.0219,0.0221,0,0,0,0,0,0.0142,0.015,0.0143,0.014,0.013,0.0123,0.0122,0.0116,0.0108,0.0115,0.0123,0.0124,0.0162,0.0157,0.0161,0.0174,0.0197,0.0198,0.0199,0.0216,0.0219,0.0221,0,0,0,0,0,0,0.0164,0.015,0.0142,0.0146,0.0135,0.0122,0.0126,0.0115,0.0125,0.0128,0.0133,0.0137,0.0159,0.0162,0.0156,0.0189,0.0179,0.0181,0.019,0.0193,0.0195,0.02,0.0156,0,0,0,0,0,0.0169,0.0175,0.0155,0.0158,0.0153,0.0138,0.0134,0.0128,0.0129,0.0133,0.0139,0.015,0.0166,0.0176,0.019,0.021,0.0194,0.0219,0.0221,0.0223,0.0229,0.0209,0.0209,0.0203,0.0203,0.0203,0,0,0.0175,0.0171,0.0171,0.0164,0.0156,0.0161,0.0137,0.0134,0.0145,0.0136,0.0159,0.0159,0.0172,0.0196,0.0205,0.0201,0.0215,0.0224,0.0226,0.0231,0.021,0.021,0.0211,0.0203,0.0203,0.0203,0,0,0.0194,0.0187,0.0198,0.0195,0.0184,0.0178,0.0175,0.0163,0.0165,0.018,0.0177,0.0182,0.0206,0.0215,0.0224,0.0245,0.0226,0.0248,0.0266,0.0246,0.0247,0.0247,0.022,0.0218,0.025,0.025,0.025,0,0.0201,0.0213,0.0199,0.021,0.0213,0.0187,0.0199,0.02,0.0197,0.0203,0.0193,0.0213,0.0218,0.0243,0.025,0.0251,0.0232,0.0255,0.0249,0.0248,0.0248,0.0221,0.0218,0.0251,0.0251,0.0251,0.0251,0,0.0228,0.0238,0.0244,0.0253,0.0256,0.0261,0.0255,0.026,0.0253,0.0249,0.0263,0.026,0.0272,0.0269,0.0269,0.0274,0.0258,0.0251,0.024,0.025,0.0221,0.0217,0.0253,0.0252,0.0252,0.0252,0,0,0.0241,0.0258,0.0261,0.0279,0.028,0.0288,0.0305,0.0312,0.0327,0.0315,0.0329,0.0336,0.0318,0.0326,0.0315,0.0296,0.0271,0.0274,0.0272,0.0245,0.0219,0.0201,0.0195,0.0259,0.0259,0.0258,0.0196,0,0.0265,0.03,0.03,0.0338,0.0356,0.0347,0.0369,0.0375,0.0373,0.0381,0.036,0.0373,0.0346,0.0349,0.0325,0.0289,0.0264,0.0288,0.0217,0.0215,0.0195,0.0192,0.0258,0.0194,0.0193,0.0192,0.0192,0,0.0291,0.0316,0.0357,0.0391,0.0397,0.0417,0.0446,0.0466,0.0465,0.046,0.0451,0.043,0.0409,0.038,0.0314,0.0329,0.0278,0.0239,0.0236,0.0212,0.0191,0.0185,0.0185,0.0186,0.0186,0.0187,0.0187,0,0.0321,0.0355,0.0395,0.0407,0.0441,0.046,0.0478,0.0491,0.0517,0.0513,0.0517,0.048,0.0468,0.0399,0.0314,0.0314,0.0226,0.0218,0.0152,0.015,0.0176,0.0176,0.0167,0.0167,0.0167,0.0167,0.0167,0,0.035,0.0384,0.0415,0.044,0.0495,0.0504,0.0558,0.0563,0.058,0.0613,0.0567,0.0568,0.0471,0.0407,0.0324,0.0224,0.0232,0.0154,0.0134,0.0184,0.0187,0.0172,0.0174,0.0165,0.0165,0.0166,0.0166,0,0.0381,0.04,0.0453,0.0493,0.0513,0.0558,0.0613,0.0647,0.0654,0.069,0.069,0.0634,0.0551,0.0441,0.0323,0.0246,0.0148,0.0109,0.0164,0.0149,0.0081,0.0084,0.0035,0.0034,0.0033,0.0032,0.0031,0,0.0399,0.043,0.0493,0.0534,0.0557,0.062,0.0663,0.0687,0.0719,0.0731,0.0743,0.0675,0.0621,0.0438,0.0319,0.015,0.0126,0.0066,0.0078,0.0083,0.0068,0.0073,0.0078,0.003,0.003,0.0029,0.0029,0,0.0434,0.0457,0.0496,0.0574,0.063,0.0702,0.0755,0.0777,0.0806,0.0812,0.0782,0.0687,0.0588,0.044,0.0303,0.0184,0.01,0.0056,0.0057,0.0068,0.0076,0.0064,0.0069,0.0026,0.0026,0.0027,0.0027,0,0.0454,0.0487,0.0535,0.0607,0.0683,0.0752,0.0781,0.0806,0.0835,0.0829,0.0817,0.0709,0.0646,0.0458,0.0335,0.021,0.0182,0.0136,0.0133,0.0135,0.0179,0.0204,0.0177,0,0,0,0,0,0.0469,0.0505,0.0566,0.0638,0.0712,0.0761,0.0829,0.0849,0.0864,0.0847,0.0832,0.0737,0.0555,0.0476,0.035,0.0316,0.0159,0.0162,0.0103,0.0008,0.0012,0.0045,0,0,0,0,0,0,0.048,0.0531,0.056,0.0651,0.0704,0.0788,0.0835,0.085,0.0835,0.083,0.0735,0.0694,0.0518,0.0626,0.0343,0.0307,0.0248,0.0081,0.0078,0.0006,0.0009,0.0012,0.0047,0,0,0,0,0]}]]